402P/LINEAR (2021)

Japanese version
Home page
Updated on October 17, 2020

---------------------------------------------------------------------

* Profile

Designation 402P/2020 Q3
Recovery Date August 18, 2020
Magnitude 19.5 mag
Recoverer E. Schwab (Egelsbach, Germany)

* Pictures

* Orbital Elements

Epoch 2021 Dec. 12.0 TT = JDT 2459560.5                                         
T 2021 Dec. 14.54832 TT                                 Rudenko                 
q   3.9378761            (2000.0)            P               Q                  
n   0.05304381     Peri.  326.73180     -0.06194576     -0.90087472             
a   7.0152996      Node   123.09142     +0.99049360     -0.10845970             
e   0.4386731      Incl.   30.85150     +0.12282164     +0.42031087             
P  18.6                                                                         
From 1025 observations 2002 Oct. 5-2020 Sept. 15, mean residual 0".7.           

* Finding Charts

* Magnitudes Graph

        m1 = 9.0 + 5 log d + 10.0 log r

---------------------------------------------------------------------

The orbital elements are published on M.P.E.C. 2020-S155.
The charts are made with StellaNavigator Ver.10 (AstroArts).
The magnitudes graphs are made with Comet for Windows.

---------------------------------------------------------------------

Copyright(C) Seiichi Yoshida (comet@aerith.net). All rights reserved.